Dewpoint
40 39 39 39 41 42 41 41 42 43 44 46 47 49 50 52 54 56 58 58 58 57 58 57 57 58 58 58 57 57 56 56 53 47 47 48 48 49 48 49 50 50 50
37 36 36 36 37 37 39 39 40 40 41 42 43 44 45 46 47 49 51 54 57 57 57 57 57 57 57 57 57 56 55 55 52 47 45 46 47 48 48 47 47 47 47
36 33 32 33 33 34 36 37 38 38 38 39 40 40 41 42 44 45 46 47 50 51 55 57 56 57 56 56 56 55 54 53 52 48 45 45 45 46 45 45 45 44 44
33 30 29 30 31 31 33 33 34 36 36 37 37 38 39 40 42 43 44 44 44 45 48 51 53 55 56 56 55 55 54 53 52 49 45 45 44 45 45 43 41 42 41
30 29 27 28 28 28 28 30 31 32 32 34 35 36 37 37 39 42 43 43 43 43 44 46 49 51 52 53 55 55 54 53 52 50 44 43 43 42 43 43 42 41 41
24 26 27 26 26 26 26 27 27 28 30 31 30 32 35 36 36 35 40 41 42 43 42 43 45 46 48 49 50 52 54 53 51 49 46 45 43 44 44 42 40 39 38
23 23 25 26 25 25 26 25 25 26 29 28 29 30 33 34 33 33 33 38 40 41 42 41 42 43 44 45 47 48 50 51 52 49 48 47 44 44 43 41 40 39 39
22 21 22 23 23 24 24 23 23 25 27 27 27 29 30 29 31 31 34 34 37 39 40 40 41 42 42 43 44 45 46 48 50 50 49 48 47 44 43 43 41 39 35
21 20 20 22 22 22 21 22 23 25 25 25 27 28 28 28 30 31 31 33 34 34 35 39 40 41 41 43 43 43 43 45 46 48 48 47 45 44 44 41 38 37 35
21 20 21 22 22 21 21 21 23 24 24 25 25 26 28 27 29 30 29 30 32 33 36 35 37 39 42 43 42 42 41 42 42 43 45 45 45 45 43 43 39 38 34
21 19 19 19 18 19 19 20 21 21 22 22 24 25 26 27 29 30 28 28 30 30 31 35 37 38 39 40 42 42 42 42 41 40 41 41 41 42 41 41 40 40 36
17 17 17 17 18 18 18 20 20 21 22 22 23 24 26 27 29 29 28 27 28 26 27 29 34 35 37 39 40 42 43 41 39 38 37 37 38 38 37 36 36 36 34
18 18 18 18 18 19 19 19 19 20 21 22 24 25 26 27 27 28 27 26 26 26 26 27 28 30 32 35 39 41 42 39 37 35 35 36 36 36 34 32 30 30 30
19 19 19 19 20 20 20 20 20 21 22 23 25 26 26 27 26 25 25 27 30 27 26 27 28 29 30 33 38 40 41 37 36 36 35 34 32 32 32 31 29 29 29
20 21 21 21 22 22 22 22 22 23 24 26 27 28 27 26 27 27 27 27 28 28 28 29 28 25 27 33 35 37 38 37 35 35 32 31 31 31 30 29 30 29 29
22 22 22 22 22 22 22 23 24 25 26 27 27 27 27 26 28 27 27 26 28 26 28 28 28 28 30 31 33 34 35 35 35 33 32 31 30 30 28 27 28 29 28
23 22 22 22 22 22 22 22 22 23 25 25 26 26 26 28 31 26 25 26 26 25 23 24 27 27 29 30 31 33 33 35 35 33 32 30 30 29 29 27 27 27 26
23 21 21 22 22 22 22 24 22 21 22 22 24 25 27 27 26 26 26 26 25 23 22 24 26 27 27 29 30 32 32 33 32 32 31 30 29 28 27 26 26 26 25
21 20 20 21 21 22 23 23 21 20 21 23 25 26 25 25 26 25 25 26 24 24 24 24 26 28 27 27 30 31 32 31 31 31 31 30 29 29 27 27 26 27 25
19 21 22 23 23 21 22 21 20 22 22 22 24 23 23 25 24 24 25 26 26 25 25 26 27 27 27 28 30 31 31 31 31 31 31 30 29 29 28 27 26 26 26
21 21 22 22 21 21 22 20 20 22 23 23 24 24 23 26 26 27 25 23 23 24 24 25 26 23 25 28 29 30 31 31 31 31 31 30 29 28 28 27 27 27 25
21 22 22 22 21 21 21 23 22 21 22 23 24 25 23 23 24 23 22 22 23 24 25 26 25 24 24 25 28 28 29 30 31 31 31 30 29 29 28 27 27 27 25
23 22 22 21 20 20 21 21 19 20 22 21 22 22 21 21 22 22 22 22 23 24 25 26 25 24 24 25 29 30 29 29 31 32 31 30 29 28 28 27 26 26 25
24 21 20 19 19 20 19 19 19 18 17 18 19 19 22 20 20 20 21 21 22 23 23 24 26 27 27 26 28 30 30 31 32 31 32 30 28 29 27 27 26 26 26
20 20 21 20 19 19 19 18 18 17 17 17 17 18 18 18 17 18 18 19 21 22 23 24 26 28 28 28 28 29 30 31 32 32 31 31 29 28 27 26 26 26 25
19 19 20 19 19 18 18 18 18 17 16 16 17 17 17 17 17 17 18 20 21 22 22 23 23 25 28 29 29 29 30 32 32 32 31 31 29 28 28 27 26 25 25
Wind_Speed
12 10 15 13 13 12 15 16 15 13 15 15 14 16 16 15 14 13 10 10 13 15 15 16 16 14 15 16 15 18 18 17 20 2 2 4 7 16 15 12 13 12 12
11 17 16 14 13 13 15 16 15 16 16 16 15 14 16 15 14 13 13 15 12 14 16 17 18 15 19 18 16 19 18 16 14 14 5 6 7 16 17 17 14 13 12
17 15 12 14 18 18 16 16 16 15 13 15 15 16 15 16 15 15 15 14 13 12 11 14 19 19 22 17 17 17 15 14 13 10 9 4 3 11 11 9 12 11 9
8 12 14 14 14 13 12 13 12 12 14 14 14 14 14 15 14 16 16 15 15 14 14 13 13 13 19 18 18 19 17 17 16 14 12 11 8 9 12 16 14 7 12
10 11 12 12 11 13 14 14 12 14 14 15 16 16 15 13 13 17 16 16 16 16 15 13 13 14 18 18 13 16 16 18 16 18 11 8 12 14 25 15 15 13 13
12 13 12 12 11 12 14 15 14 14 14 13 14 13 14 12 18 20 17 15 15 15 16 16 15 15 15 17 18 20 16 19 18 17 18 20 21 17 16 19 12 10 10
11 12 12 12 14 14 13 12 15 16 15 16 16 16 17 17 20 21 20 15 16 14 16 17 16 14 17 15 16 18 19 22 20 22 22 20 19 23 24 22 16 13 10
13 15 16 17 17 15 16 16 17 14 14 14 13 13 14 16 21 22 23 15 16 16 16 17 17 17 15 15 16 16 16 16 19 17 19 19 18 21 29 23 20 13 6
10 11 12 12 12 13 15 15 15 14 16 16 15 15 15 16 19 20 20 17 16 19 19 17 17 17 18 17 15 17 18 15 9 17 17 16 19 25 18 20 21 19 9
9 10 10 9 10 12 12 14 11 11 13 13 14 14 16 17 19 19 18 12 14 15 16 18 18 21 22 22 15 16 18 16 13 10 11 16 22 24 29 22 25 23 9
8 9 8 8 10 11 13 14 15 19 20 18 15 14 14 13 14 16 17 14 13 15 16 15 15 19 22 25 23 17 18 12 14 13 13 14 14 17 17 11 18 18 18
9 12 15 17 16 15 15 15 15 16 16 18 17 16 13 13 15 14 17 16 17 15 16 17 18 24 26 24 23 22 21 14 13 14 14 14 16 17 14 13 13 9 3
11 12 13 14 15 16 18 20 19 16 14 14 13 13 13 12 14 14 16 16 16 15 15 18 25 27 26 23 22 23 23 14 15 16 17 15 12 11 16 14 12 14 12
13 15 15 15 16 14 14 12 13 14 14 14 13 13 13 13 12 14 14 11 13 14 18 18 20 24 24 20 21 17 15 15 16 16 16 9 11 14 12 12 11 14 11
12 12 12 11 13 14 13 14 14 15 15 16 15 13 12 13 12 17 20 14 14 15 22 16 16 17 16 15 15 13 14 13 15 13 13 15 13 13 13 13 12 13 10
12 11 12 13 12 13 13 16 16 19 21 21 22 20 14 16 18 20 22 22 18 21 17 14 15 15 13 14 16 16 14 14 14 13 12 15 18 18 14 12 13 16 14
11 13 13 13 13 14 15 16 20 20 20 21 21 20 20 18 19 22 22 21 17 17 12 15 14 14 14 13 15 15 14 12 11 14 15 16 14 15 18 16 14 16 15
13 16 13 13 13 15 16 17 18 18 21 19 18 19 18 19 20 20 19 18 10 11 12 14 14 12 14 14 14 16 13 10 11 11 12 15 17 19 18 19 17 15 15
14 13 13 14 15 18 17 18 16 17 18 18 18 15 17 17 19 19 17 11 12 13 14 14 13 12 13 14 13 15 13 12 11 12 13 14 15 17 18 19 21 22 18
12 15 15 15 16 17 16 17 17 17 18 18 17 15 15 17 15 14 12 10 11 13 14 14 13 12 13 12 15 13 13 11 10 12 12 13 15 16 17 19 20 21 19
12 12 17 14 16 16 15 17 18 19 18 18 17 16 22 19 13 9 11 13 14 13 13 16 12 15 15 12 14 12 12 12 10 11 12 13 14 15 15 17 18 18 18
12 14 14 15 17 16 17 17 17 18 19 17 17 14 20 15 13 14 14 14 14 14 13 15 15 14 14 14 13 13 13 12 11 10 11 12 13 13 14 16 17 18 19
14 14 12 13 14 18 18 15 18 18 17 18 17 15 14 14 14 15 16 15 15 15 13 14 15 14 14 14 13 12 12 13 12 11 12 14 14 15 16 17 18 19 19
9 11 13 14 14 18 16 17 17 19 19 18 17 17 13 13 16 17 17 16 15 15 14 15 15 16 15 14 12 12 11 12 11 11 12 13 14 16 16 17 18 19 19
11 12 12 12 15 17 17 17 17 17 17 17 17 16 16 16 16 16 16 15 15 15 15 16 16 16 17 17 16 16 14 17 15 11 10 12 14 17 15 16 17 18 19
11 10 11 12 14 16 16 16 17 16 17 17 16 16 16 16 16 17 16 16 16 16 17 16 17 19 18 16 16 16 17 17 14 13 11 12 15 15 15 16 20 18 20
Wind_Direction
36 26 38 30 36 27 24 19 8 11 12 14 360 352 358 352 353 338 263 249 230 228 221 223 232 229 234 228 220 228 228 229 247 276 144 169 165 163 154 161 158 162 167
39 42 32 25 26 30 29 20 6 12 6 4 4 1 360 355 351 350 347 345 261 238 230 226 235 228 230 235 220 224 220 220 214 193 167 161 172 169 165 166 172 170 175
29 34 27 22 26 21 19 19 1 3 7 4 3 5 358 349 354 358 350 343 337 334 308 246 237 230 235 231 225 225 215 199 201 173 165 167 124 166 166 161 171 168 180
34 38 34 26 25 17 11 19 4 356 6 5 359 358 357 349 357 357 349 345 340 333 326 318 308 295 243 221 229 224 213 197 200 196 178 174 175 176 171 174 181 177 183
31 35 27 22 20 15 14 13 357 0 359 355 354 352 355 351 351 353 349 339 333 329 324 317 310 303 298 295 257 230 224 221 201 197 183 171 182 169 187 179 191 175 192
25 21 11 11 12 8 5 4 0 356 354 351 353 345 338 343 341 343 340 331 324 318 316 314 310 307 301 298 290 277 255 222 215 205 192 196 192 192 188 178 165 168 203
18 9 4 358 358 357 351 350 352 347 342 345 345 347 340 335 337 336 335 325 321 310 308 307 303 300 303 299 294 286 271 249 220 205 207 207 191 190 178 175 179 183 193
6 1 358 355 347 342 342 343 341 337 331 331 330 328 329 329 334 334 330 324 317 308 304 301 296 292 289 293 291 284 275 259 239 224 217 214 202 181 175 178 178 169 115
351 342 337 335 330 331 330 324 317 314 318 320 319 319 321 321 326 329 329 326 315 310 309 303 297 289 283 279 273 274 276 257 247 224 205 188 173 174 172 146 157 177 185
319 316 312 308 307 308 309 312 309 296 293 298 305 306 311 314 317 320 322 314 309 312 313 308 304 306 295 287 266 260 263 260 231 214 197 185 175 177 168 182 159 185 160
288 295 302 312 323 318 316 313 318 320 319 311 301 298 298 294 295 300 312 313 310 309 304 310 309 314 312 301 284 251 239 238 229 218 199 179 172 169 169 188 170 191 175
326 335 339 337 334 326 318 311 305 299 299 301 299 302 302 301 301 297 307 307 310 305 303 304 308 315 318 312 296 274 252 212 201 202 198 189 181 172 173 169 144 150 120
347 333 322 319 324 325 327 322 316 308 303 299 287 284 291 297 296 294 308 308 307 308 303 299 305 305 304 309 300 279 264 205 194 194 201 196 188 162 139 123 111 109 87
337 333 330 325 320 313 303 293 295 296 295 297 290 282 287 291 291 308 297 294 301 304 301 299 298 301 300 293 303 278 263 206 203 202 198 186 147 153 156 150 145 142 134
336 326 317 306 302 305 303 299 297 294 290 291 275 268 290 292 288 296 298 300 302 301 309 304 299 303 298 295 298 283 268 215 209 196 176 170 178 169 171 159 144 150 156
329 321 315 315 313 309 304 308 311 306 307 308 301 291 291 290 298 303 305 304 305 308 308 302 299 297 303 313 304 292 276 233 213 194 184 180 181 176 170 163 152 171 160
319 315 315 320 316 319 320 320 320 318 313 311 311 308 289 282 291 301 301 298 303 311 308 301 296 303 301 305 308 292 277 250 214 195 182 181 177 171 166 172 167 165 159
319 321 317 309 309 312 312 310 315 313 315 317 316 312 302 300 297 301 301 304 306 298 287 289 292 294 308 308 313 304 288 260 223 204 189 180 175 170 168 171 166 168 161
317 313 315 316 314 313 317 310 312 312 307 306 306 309 311 309 303 299 298 296 293 294 289 283 281 287 298 304 300 308 287 261 227 211 199 188 178 177 182 176 172 172 164
302 312 321 315 314 316 309 315 313 307 302 301 295 297 303 303 291 282 275 274 277 280 284 285 284 283 285 299 304 309 298 281 238 221 208 194 187 185 182 173 171 173 176
301 309 314 318 305 308 312 311 299 294 297 300 297 294 298 304 302 302 300 298 294 288 284 288 278 289 283 288 301 298 303 290 258 226 214 200 187 188 174 175 174 170 160
307 299 303 309 307 311 308 306 312 305 299 300 304 301 309 315 302 297 297 294 287 283 278 280 283 279 279 282 287 295 299 296 276 235 211 196 191 183 167 168 166 165 162
292 296 309 306 313 312 307 311 309 304 307 306 300 302 305 302 299 296 295 294 294 291 286 278 274 279 274 270 267 271 288 290 281 246 212 189 180 175 173 172 165 163 164
305 324 314 312 314 312 311 309 309 312 314 315 313 306 296 305 303 299 299 299 297 295 291 287 280 275 275 275 273 267 275 277 269 245 210 186 179 173 168 168 168 165 162
325 316 299 308 309 305 304 306 307 309 309 308 308 310 307 304 302 300 300 300 298 296 291 286 283 272 267 266 265 270 271 280 273 240 204 184 176 171 168 166 161 159 159
323 315 312 311 308 306 303 304 306 309 308 305 302 304 302 299 297 298 297 295 292 288 286 285 283 284 281 268 265 270 277 279 276 233 198 181 171 168 166 162 158 160 160